Skip Page Navigation
NASA JPL Caltech
NASA Logo - Jet Propulsion Laboratory + View the NASA Portal
+ Center for Near-Earth Object Studies
JPL Home Earth Solar System Stars & Galaxies Technology
JPL Solar System Dynamics
BODIES ORBITS EPHEMERIDES TOOLS PHYSICAL DATA DISCOVERY FAQ SITE MAP
IMPORTANT: The SSD Announcement email list is now available. Major changes are coming in the near future, including possible hostname and/or URL changes. To be notified of such changes, subscribe to this email list.

Please visit this page for more details.


JPL Small-Body Database Browser
Search: [ help ]  
108382 Karencilevitz (2001 KM21)
Classification: Main-belt Asteroid          SPK-ID: 2108382
Ephemeris | Orbit Diagram | Orbital Elements | Mission Design | Physical Parameters | Discovery Circumstances | Close-Approach Data ]

[ show orbit diagram ]
Orbital Elements at Epoch 2458600.5 (2019-Apr-27.0) TDB
Reference: JPL 16 (heliocentric ecliptic J2000)
 Element Value Uncertainty (1-sigma)   Units 
e .0190975863186177 6.3503e-08  
a 2.659592497961366 2.3765e-08 au
q 2.6088007006592 1.7397e-07 au
i 22.66525882290341 6.8798e-06 deg
node 111.3974961493838 1.5591e-05 deg
peri 135.7758934757962 0.00016345 deg
M 57.69391289163234 0.00016145 deg
tp 2458346.608261461665
(2018-Aug-16.10826146)
0.00071073 TDB
period 1584.240369438645
4.34
2.1234e-05
5.814e-08
d
yr
n .2272382442366125 3.0457e-09 deg/d
Q 2.710384295263531 2.4218e-08 au
  Orbit Determination Parameters
   # obs. used (total)      567  
   data-arc span      6257 days (17.13 yr)  
   first obs. used      2001-05-18  
   last obs. used      2018-07-05  
   planetary ephem.      DE431  
   SB-pert. ephem.      SB431-N16  
   condition code      0  
   norm. resid. RMS      .59733  
   source      ORB  
   producer      Otto Matic  
   solution date      2019-Jul-13 12:47:58  

Additional Information
 Earth MOID = 1.60357 au 
 Jupiter MOID = 2.48265 au 
 T_jup = 3.276 
[ show covariance matrix ]

Ephemeris | Orbit Diagram | Orbital Elements | Mission Design | Physical Parameters | Discovery Circumstances | Close-Approach Data ]

Physical Parameter Table
Parameter Symbol Value Units Sigma Reference Notes
absolute magnitude H 15.1   n/a MPO359504  

108382 Karencilevitz           Discovered 2001 May 18 by M. Collins and M. White at Anza.
South African-born Karen Cilevitz (b. 1957) is a lifelong avid amateur astronomer and an active member of the Royal Astronomical Society of Canada in Toronto. She enthusiastically hosts star parties and participates in many organizations to spread a love of astronomy. She is a loving wife and mother of three.
NOTE: some special characters may not display properly (any characters within {} are an attempt to place the proper accent above a character)
Reference: 20060613/MPCPages.arcLast Updated: 2008-05-22

[ show close-approach data ]
Alternate Designations
 2001 KM21 = 2003 YW7 
Ephemeris | Orbit Diagram | Orbital Elements | Mission Design | Physical Parameters | Discovery Circumstances | Close-Approach Data ]
ABOUT SSD CREDITS/AWARDS PRIVACY/COPYRIGHT GLOSSARY LINKS
FirstGov 2020-Jan-27 19:07 UT
(server date/time)  
NASA Home Page
Site Manager:   Ryan S. Park
Webmaster  Alan B. Chamberlin